STARLINK-2731, 48651

Orbit data source: Space-Track

STARLINK-2731, 48651 is a payload satellite owned by SpaceX/Seattle (US) in LEO that was launched on Wed, 26 May 2021 UTC via an FALCON 9 launch vehicle from the Air Force Eastern Test Range (AFETR). Payload-class satellites include a variety of spacecraft equipped with specific instruments for various scientific and technological missions. These include communications satellites like Starlink; space stations such as the ISS; scientific satellites like the Hubble; Earth observation satellites from companies like Planet Labs, Umbra, and HawkEye 360; GPS; miniature CubeSats for education and research; and military/defense satellites.

Loading next visibility...
Identifier
48651, 2021-044P
Orbit
LEO
Country
Flag of USUS
Related business
Manufacturer
SpaceX/Seattle
Mission
Operational Commercial Communications
Bus & Motor
STARLINK, Unknown motor
Mass
260 kg wet, ~248 kg dry
Launch date (UTC)
2021-05-26 (5 years ago)
Launch vehicle
FALCON 9
Launch site
Air Force Eastern Test Range (AFETR)
Object type
Payload
Rocket body
Debris
Shape & HBR
Box + 1 Pan, 10.1 m
Radar Cross Section
13.562 m², Large (>1 m²)

Expand to show TLE details & history
Last TLE update: 1 day ago

TLE from 1 day ago
0 STARLINK-2731
1 48651U 21044P   25348.69660920  .00001096  00000-0  92428-4 0  9990
2 48651  53.0544 143.1651 0001203  90.0363 270.0763 15.06398581250890
Epoch: 2025-12-14T16:43Z
TLE epoch observation values (Epoch: 2025-12-14T16:43:07.034Z)
Latitude
-0.00011°
Longitude
168.77989°
Altitude
548.094 km
Speed
7.589 km/s
True Right ascension
09h 32m 39s
True Declination
0° 00' 00"
Sunlit
Object was in full shadow at epoch
Visualization orbit readout
Latitude
Unknown
Longitude
Unknown
Altitude
Unknown
Speed
Unknown
Apparent Right ascension
Unknown
Apparent Declination
Unknown
Sunlit
N/A
Visualization observer readout
Local Sidereal Time
23:01:59
Azimuth
Unknown
Elevation
Unknown
Doppler factor
Unknown
Orbital elements
Apogee altitude
548.32 km
Perigee altitude
546.653 km
Semi-major axis
6,925.624 km
Eccentricity
0.00012
Inclination
53.0544°
RAAN
143.1651°
Arg. of periapsis
90.0363°
True anomaly
270.06251°
Mean anomaly
270.0763°
Eccentric anomaly
270.06941°
Mean motion
3.76578 °/min
Orbital period
95.6 mins
BSTAR
0.000092428
Loading maneuver chart data...
Computing Atmospheric mass density...
Loading historical data...
Loading historical data...
Loading historical data...
Loading historical data...
Loading historical data...
Loading historical data...
Loading historical data...

Documentation

Showing up to 5 results
|